Location: Casteau
(50.5142°N, 4.0161°E)
Time: 06:11:21
(UTC+00:00)

Transit 2A - Pass Details

Date: 04 August 2021
Orbit: 594 x 964 km, 66.7° (Epoch: 24 September)

Event Time Altitude Azimuth Distance (km) Brightness Sun altitude
Rises 15:37:58 0° 307° (NW) 3,312 9.8 33.9°
Reaches altitude 10° 15:42:00 10° 277° (W) 2,467 9.8 33.3°
Maximum altitude 15:44:01 12° 256° (WSW) 2,369 10.2 33.0°
Drops below altitude 10° 15:46:06 10° 236° (SW) 2,543 9.9 32.6°
Sets 15:50:28 0° 207° (SSW) 3,551 9.9 32.0°
